Nairobi Wilson, Kenya

7:50 PM EAT on April 26, 2017 (GMT +0300)
Nairobi Wilson

Weather History for HKNW - August, 2013

Change the Weather History Date:

Sunday, August 18, 2013

  Actual Average Record
Temperature  
Mean Temperature 65 °F -  
Max Temperature 77 °F 70 °F 77 °F (2013)
Min Temperature 53 °F 55 °F 53 °F (2013)
Growing Degree Days 15 (Base 50)    
Moisture  
Dew Point 55 °F    
Average Humidity 74    
Maximum Humidity 100    
Minimum Humidity 41    
Precipitation  
Precipitation 0.00 in - - ()
Sea Level Pressure  
Sea Level Pressure 30.11 in    
Wind  
Wind Speed 3 mph ()    
Max Wind Speed 17 mph    
Max Gust Speed -    
Visibility 5.9 miles    
Events Fog    
Averages and records for this station are not official NWS values.
T = Trace of Precipitation, MM = Missing Value Source: Averaged Metar Reports

Daily Weather History Graph

Daily Weather History Graph

Search for Another Location

Airport or City:

Trip Planner

Search our weather history database for the weather conditions in past years. The results will help you decide how hot, cold, wet, or windy it might be!

Date:

Astronomy

Aug. 18, 2013 Rise Set
Actual Time 6:34 AM EAT 6:38 PM EAT
Civil Twilight 6:13 AM EAT 6:59 PM EAT
Nautical Twilight 5:48 AM EAT 7:24 PM EAT
Astronomical Twilight 5:23 AM EAT 7:49 PM EAT
Moon 4:10 PM EAT (8/18) 3:42 AM EAT (8/18)
Length of Visible Light 12h 46m
Length of Day
12h 04m
Waxing Gibbous, 90% of the Moon is Illuminated
Aug 18
Waxing Gibbous
Aug 21
Full
Aug 28
Last Quarter
Sep 5
New
Sep 12
First Quarter

Hourly Weather History & Observations

Time (EAT) Temp. Dew Point Humidity Pressure Visibility Wind Dir Wind Speed Gust Speed Precip Events Conditions
12:00 AM 64.4 °F 53.6 °F 68% 30.15 in 6.2 mi Calm Calm - N/A   Scattered Clouds
1:00 AM 60.8 °F 55.4 °F 82% 30.12 in 6.2 mi Calm Calm - N/A   Scattered Clouds
2:00 AM 59.0 °F 55.4 °F 88% 30.12 in 6.2 mi Calm Calm - N/A   Scattered Clouds
3:00 AM 55.4 °F 53.6 °F 94% 30.09 in 6.2 mi Calm Calm - N/A   Scattered Clouds
4:00 AM 55.4 °F 53.6 °F 94% 30.09 in 6.2 mi Calm Calm - N/A   Scattered Clouds
5:00 AM 55.4 °F 53.6 °F 94% 30.09 in 6.2 mi Calm Calm - N/A   Partly Cloudy
6:00 AM 53.6 °F 51.8 °F 94% 30.12 in 6.2 mi Calm Calm - N/A   Partly Cloudy
7:00 AM 53.6 °F 51.8 °F 94% 30.12 in 6.2 mi SW 5.8 mph - N/A   Partly Cloudy
8:00 AM 55.4 °F 53.6 °F 94% 30.15 in 0.1 mi SW 8.1 mph - N/A Fog Heavy Fog
9:00 AM 57.2 °F 57.2 °F 100% 30.18 in 6.2 mi South 13.8 mph - N/A   Mostly Cloudy
10:00 AM 66.2 °F 57.2 °F 73% 30.18 in 6.2 mi SW 5.8 mph - N/A   Partly Cloudy
11:00 AM 73.4 °F 59.0 °F 61% 30.15 in 6.2 mi South 5.8 mph - N/A   Partly Cloudy
12:00 PM 77.0 °F 59.0 °F 54% 30.15 in 6.2 mi West 6.9 mph - N/A   Scattered Clouds
1:00 PM 75.2 °F 57.2 °F 53% 30.12 in 6.2 mi SSW 8.1 mph - N/A   Scattered Clouds
2:00 PM 77.0 °F 55.4 °F 47% 30.09 in 6.2 mi SSW 11.5 mph - N/A   Mostly Cloudy
3:00 PM 68.0 °F 59.0 °F 73% 30.06 in 6.2 mi NNW 17.3 mph - N/A   Mostly Cloudy
4:00 PM 73.4 °F 51.8 °F 47% 30.06 in 6.2 mi NW 9.2 mph - N/A   Mostly Cloudy
5:00 PM 77.0 °F 51.8 °F 41% 30.04 in 6.2 mi Calm Calm - N/A   Mostly Cloudy
6:00 PM 69.8 °F 55.4 °F 60% 30.06 in 6.2 mi South 9.2 mph - N/A   Mostly Cloudy
7:00 PM 64.4 °F 55.4 °F 73% 30.09 in 6.2 mi South 9.2 mph - N/A   Mostly Cloudy
8:00 PM 64.4 °F 57.2 °F 77% 30.09 in 6.2 mi West 4.6 mph - N/A   Mostly Cloudy
9:00 PM 64.4 °F 57.2 °F 77% 30.09 in 6.2 mi Calm Calm - N/A   Mostly Cloudy
10:00 PM 66.2 °F 57.2 °F 73% 30.12 in 6.2 mi ENE 4.6 mph - N/A   Partly Cloudy
11:00 PM 64.4 °F 57.2 °F 77% 30.12 in 6.2 mi Calm Calm - N/A   Scattered Clouds